Time,TemperatureF,DewpointF,PressureIn,WindDirection,WindDirectionDegrees,WindSpeedMPH,WindSpeedGustMPH,Humidity,HourlyPrecipIn,Conditions,Clouds,dailyrainin,SolarRadiationWatts/m^2,SoftwareType,DateUTC
2013-03-17 00:00:00,34.2,14.0,29.82,WNW,297,0.0,0.0,43,0.00,OVC,FEW,0.00,0.0,WeatherDisplay:10.37,2013-03-17 04:00:00,
2013-03-17 00:01:00,34.0,13.8,29.82,WNW,297,0.0,0.0,43,0.00,OVC,FEW,0.00,0.0,WeatherDisplay:10.37,2013-03-17 04:01:00,
2013-03-17 00:06:00,34.0,13.8,29.82,WNW,298,0.0,0.0,43,0.00,OVC,FEW,0.00,0.0,WeatherDisplay:10.37,2013-03-17 04:06:00,
2013-03-17 00:11:00,33.8,13.6,29.82,WNW,298,0.0,0.0,43,0.00,OVC,FEW,0.00,0.0,WeatherDisplay:10.37,2013-03-17 04:11:00,
2013-03-17 00:16:00,33.6,14.0,29.82,WNW,298,0.0,0.0,44,0.00,OVC,FEW,0.00,0.0,WeatherDisplay:10.37,2013-03-17 04:16:00,
2013-03-17 00:21:00,33.6,14.0,29.82,WNW,298,0.0,0.0,44,0.00,OVC,FEW,0.00,0.0,WeatherDisplay:10.37,2013-03-17 04:21:00,
2013-03-17 00:26:00,33.3,13.7,29.82,WNW,299,0.0,0.0,44,0.00,OVC,FEW,0.00,0.0,WeatherDisplay:10.37,2013-03-17 04:26:00,
2013-03-17 00:31:00,33.1,13.5,29.82,WNW,298,0.0,0.0,44,0.00,OVC,FEW,0.00,0.0,WeatherDisplay:10.37,2013-03-17 04:31:00,
2013-03-17 00:36:00,32.9,13.3,29.82,WNW,298,0.0,0.0,44,0.00,OVC,FEW,0.00,0.0,WeatherDisplay:10.37,2013-03-17 04:36:00,
2013-03-17 00:41:00,32.5,13.0,29.85,WNW,298,0.0,0.0,44,0.00,OVC,FEW,0.00,0.0,WeatherDisplay:10.37,2013-03-17 04:41:00,
2013-03-17 00:46:00,32.4,12.8,29.85,WNW,303,0.0,0.0,44,0.00,OVC,FEW,0.00,0.0,WeatherDisplay:10.37,2013-03-17 04:46:00,
2013-03-17 00:51:00,32.2,12.7,29.85,WNW,300,0.0,0.0,44,0.00,OVC,FEW,0.00,0.0,WeatherDisplay:10.37,2013-03-17 04:51:00,
2013-03-17 00:56:00,31.8,12.4,29.85,WNW,300,0.0,0.0,44,0.00,OVC,FEW,0.00,0.0,WeatherDisplay:10.37,2013-03-17 04:56:00,
2013-03-17 01:01:00,31.5,12.0,29.85,WNW,300,0.0,0.0,44,0.00,OVC,FEW,0.00,0.0,WeatherDisplay:10.37,2013-03-17 05:01:00,
2013-03-17 01:06:00,31.1,11.7,29.85,NW,307,0.0,0.0,44,0.00,OVC,FEW,0.00,0.0,WeatherDisplay:10.37,2013-03-17 05:06:00,
2013-03-17 01:11:00,30.9,11.5,29.85,NW,318,0.0,0.0,44,0.00,OVC,FEW,0.00,0.0,WeatherDisplay:10.37,2013-03-17 05:11:00,
2013-03-17 01:17:00,30.9,11.5,29.85,NNW,335,3.5,3.5,44,0.00,OVC,FEW,0.00,0.0,WeatherDisplay:10.37,2013-03-17 05:17:00,
2013-03-17 01:22:00,30.9,11.5,29.85,NNW,337,0.0,0.0,44,0.00,OVC,FEW,0.00,0.0,WeatherDisplay:10.37,2013-03-17 05:22:00,
2013-03-17 01:27:00,30.7,11.4,29.85,NNW,346,0.0,0.0,44,0.00,OVC,FEW,0.00,0.0,WeatherDisplay:10.37,2013-03-17 05:27:00,
2013-03-17 01:32:00,30.6,11.2,29.85,North,352,0.0,0.0,44,0.00,OVC,FEW,0.00,0.0,WeatherDisplay:10.37,2013-03-17 05:32:00,
2013-03-17 01:37:00,30.4,11.0,29.85,North,6,0.0,0.0,44,0.00,OVC,FEW,0.00,0.0,WeatherDisplay:10.37,2013-03-17 05:37:00,
2013-03-17 01:42:00,30.2,10.9,29.85,NNW,347,0.0,0.0,44,0.00,OVC,FEW,0.00,0.0,WeatherDisplay:10.37,2013-03-17 05:42:00,
2013-03-17 01:47:00,30.0,10.7,29.85,NNW,328,0.0,0.0,44,0.00,OVC,FEW,0.00,0.0,WeatherDisplay:10.37,2013-03-17 05:47:00,
2013-03-17 01:52:00,29.7,10.4,29.85,NNW,332,0.0,0.0,44,0.00,OVC,FEW,0.00,0.0,WeatherDisplay:10.37,2013-03-17 05:52:00,
2013-03-17 01:57:00,29.5,10.2,29.88,NW,324,0.0,0.0,44,0.00,OVC,FEW,0.00,0.0,WeatherDisplay:10.37,2013-03-17 05:57:00,
2013-03-17 02:02:00,29.3,11.1,29.88,NW,325,0.0,0.0,46,0.00,OVC,FEW,0.00,0.0,WeatherDisplay:10.37,2013-03-17 06:02:00,
2013-03-17 02:07:00,29.3,11.1,29.88,NW,326,0.0,0.0,46,0.00,OVC,FEW,0.00,0.0,WeatherDisplay:10.37,2013-03-17 06:07:00,
2013-03-17 02:12:00,29.1,10.9,29.88,NW,326,0.0,0.0,46,0.00,OVC,FEW,0.00,0.0,WeatherDisplay:10.37,2013-03-17 06:12:00,
2013-03-17 02:17:00,28.9,10.7,29.88,NW,326,0.0,0.0,46,0.00,FEW,,0.00,0.0,WeatherDisplay:10.37,2013-03-17 06:17:00,
2013-03-17 02:22:00,28.8,10.6,29.88,NNW,327,0.0,0.0,46,0.00,FEW,,0.00,0.0,WeatherDisplay:10.37,2013-03-17 06:22:00,
2013-03-17 02:27:00,28.6,10.4,29.85,NW,326,0.0,0.0,46,0.00,FEW,,0.00,0.0,WeatherDisplay:10.37,2013-03-17 06:27:00,
2013-03-17 02:32:00,28.2,11.0,29.85,NNW,337,0.0,0.0,48,0.00,FEW,,0.00,0.0,WeatherDisplay:10.37,2013-03-17 06:32:00,
2013-03-17 02:37:00,28.2,11.0,29.85,North,353,0.0,0.0,48,0.00,FEW,,0.00,0.0,WeatherDisplay:10.37,2013-03-17 06:37:00,
2013-03-17 02:42:00,28.0,10.8,29.85,NNW,333,0.0,0.0,48,0.00,FEW,,0.00,0.0,WeatherDisplay:10.37,2013-03-17 06:42:00,
2013-03-17 02:48:00,27.9,10.7,29.85,NNW,332,0.0,0.0,48,0.00,FEW,,0.00,0.0,WeatherDisplay:10.37,2013-03-17 06:48:00,
2013-03-17 02:53:00,27.7,10.5,29.85,NNW,332,0.0,0.0,48,0.00,FEW,,0.00,0.0,WeatherDisplay:10.37,2013-03-17 06:53:00,
2013-03-17 02:58:00,27.5,10.4,29.85,NNW,332,0.0,0.0,48,0.00,FEW,,0.00,0.0,WeatherDisplay:10.37,2013-03-17 06:58:00,
2013-03-17 03:03:00,27.1,10.0,29.85,NNW,332,0.0,0.0,48,0.00,FEW,,0.00,0.0,WeatherDisplay:10.37,2013-03-17 07:03:00,
2013-03-17 03:08:00,27.0,9.9,29.85,NNW,332,0.0,0.0,48,0.00,FEW,,0.00,0.0,WeatherDisplay:10.37,2013-03-17 07:08:00,
2013-03-17 03:13:00,27.0,9.9,29.85,NNW,332,0.0,0.0,48,0.00,FEW,,0.00,0.0,WeatherDisplay:10.37,2013-03-17 07:13:00,
2013-03-17 03:18:00,26.6,9.5,29.85,NNW,332,0.0,0.0,48,0.00,CLR,FEW,0.00,0.0,WeatherDisplay:10.37,2013-03-17 07:18:00,
2013-03-17 03:23:00,26.6,9.5,29.85,NW,319,0.0,0.0,48,0.00,CLR,FEW,0.00,0.0,WeatherDisplay:10.37,2013-03-17 07:23:00,
2013-03-17 03:28:00,26.4,9.4,29.85,NW,316,0.0,0.0,48,0.00,CLR,FEW,0.00,0.0,WeatherDisplay:10.37,2013-03-17 07:28:00,
2013-03-17 03:33:00,26.2,9.2,29.85,NW,313,0.0,0.0,48,0.00,CLR,FEW,0.00,0.0,WeatherDisplay:10.37,2013-03-17 07:33:00,
2013-03-17 03:38:00,26.2,9.2,29.85,NW,313,0.0,0.0,48,0.00,CLR,FEW,0.00,0.0,WeatherDisplay:10.37,2013-03-17 07:38:00,
2013-03-17 03:43:00,26.1,9.0,29.85,NW,313,0.0,0.0,48,0.00,CLR,FEW,0.00,0.0,WeatherDisplay:10.37,2013-03-17 07:43:00,
2013-03-17 03:48:00,26.1,9.0,29.85,NW,313,0.0,0.0,48,0.00,CLR,FEW,0.00,0.0,WeatherDisplay:10.37,2013-03-17 07:48:00,
2013-03-17 03:53:00,25.9,8.9,29.85,NW,312,0.0,0.0,48,0.00,CLR,FEW,0.00,0.0,WeatherDisplay:10.37,2013-03-17 07:53:00,
2013-03-17 03:58:00,25.7,8.7,29.88,NW,312,0.0,0.0,48,0.00,CLR,FEW,0.00,0.0,WeatherDisplay:10.37,2013-03-17 07:58:00,
2013-03-17 04:03:00,25.5,9.9,29.88,NW,313,0.0,0.0,51,0.00,CLR,FEW,0.00,0.0,WeatherDisplay:10.37,2013-03-17 08:03:00,
2013-03-17 04:08:00,25.3,9.7,29.88,NNW,328,2.3,0.0,51,0.00,CLR,FEW,0.00,0.0,WeatherDisplay:10.37,2013-03-17 08:08:00,
2013-03-17 04:13:00,25.3,9.7,29.88,NW,320,3.5,3.5,51,0.00,CLR,FEW,0.00,0.0,WeatherDisplay:10.37,2013-03-17 08:13:00,
2013-03-17 04:18:00,25.3,9.7,29.88,NW,314,0.0,0.0,51,0.00,CLR,FEW,0.00,0.0,WeatherDisplay:10.37,2013-03-17 08:18:00,
2013-03-17 04:23:00,25.3,10.6,29.88,NNW,331,0.0,0.0,53,0.00,CLR,FEW,0.00,0.0,WeatherDisplay:10.37,2013-03-17 08:23:00,
2013-03-17 04:28:00,25.3,10.6,29.88,NNW,330,0.0,0.0,53,0.00,CLR,FEW,0.00,0.0,WeatherDisplay:10.37,2013-03-17 08:28:00,
2013-03-17 04:33:00,25.2,10.4,29.88,NNW,327,0.0,0.0,53,0.00,CLR,FEW,0.00,0.0,WeatherDisplay:10.37,2013-03-17 08:33:00,
2013-03-17 04:38:00,25.2,10.4,29.88,NW,326,0.0,0.0,53,0.00,CLR,FEW,0.00,0.0,WeatherDisplay:10.37,2013-03-17 08:38:00,
2013-03-17 04:43:00,25.0,10.2,29.88,NW,326,0.0,0.0,53,0.00,CLR,FEW,0.00,0.0,WeatherDisplay:10.37,2013-03-17 08:43:00,
2013-03-17 04:48:00,25.0,11.5,29.88,NW,326,0.0,0.0,56,0.00,CLR,FEW,0.00,0.0,WeatherDisplay:10.37,2013-03-17 08:48:00,
2013-03-17 04:53:00,24.8,11.3,29.88,NW,326,0.0,0.0,56,0.00,CLR,FEW,0.00,0.0,WeatherDisplay:10.37,2013-03-17 08:53:00,
2013-03-17 04:58:00,24.8,12.5,29.88,NW,305,0.0,0.0,59,0.00,CLR,FEW,0.00,0.0,WeatherDisplay:10.37,2013-03-17 08:58:00,
2013-03-17 05:03:00,24.8,12.5,29.88,WNW,298,0.0,0.0,59,0.00,CLR,FEW,0.00,0.0,WeatherDisplay:10.37,2013-03-17 09:03:00,
2013-03-17 05:08:00,24.8,12.5,29.88,WNW,298,0.0,0.0,59,0.00,CLR,FEW,0.00,0.0,WeatherDisplay:10.37,2013-03-17 09:08:00,
2013-03-17 05:13:00,24.6,12.3,29.91,WNW,298,0.0,0.0,59,0.00,CLR,FEW,0.00,0.0,WeatherDisplay:10.37,2013-03-17 09:13:00,
2013-03-17 05:18:00,24.4,12.1,29.91,WNW,298,0.0,0.0,59,0.00,CLR,FEW,0.00,0.0,WeatherDisplay:10.37,2013-03-17 09:18:00,
2013-03-17 05:23:00,24.4,12.1,29.88,WNW,298,0.0,0.0,59,0.00,CLR,FEW,0.00,0.0,WeatherDisplay:10.37,2013-03-17 09:23:00,
2013-03-17 05:28:00,24.6,12.3,29.88,WNW,298,0.0,0.0,59,0.00,CLR,FEW,0.00,0.0,WeatherDisplay:10.37,2013-03-17 09:28:00,
2013-03-17 05:33:00,24.4,12.1,29.88,WNW,297,0.0,0.0,59,0.00,CLR,FEW,0.00,0.0,WeatherDisplay:10.37,2013-03-17 09:33:00,
2013-03-17 05:38:00,24.4,12.1,29.91,WNW,297,0.0,0.0,59,0.00,CLR,FEW,0.00,0.0,WeatherDisplay:10.37,2013-03-17 09:38:00,
2013-03-17 05:43:00,24.4,12.1,29.91,WNW,297,0.0,0.0,59,0.00,CLR,FEW,0.00,0.0,WeatherDisplay:10.37,2013-03-17 09:43:00,
2013-03-17 05:48:00,24.3,12.0,29.91,WNW,297,0.0,0.0,59,0.00,CLR,FEW,0.00,0.0,WeatherDisplay:10.37,2013-03-17 09:48:00,
2013-03-17 05:53:00,24.3,12.0,29.91,WNW,297,0.0,0.0,59,0.00,CLR,FEW,0.00,0.0,WeatherDisplay:10.37,2013-03-17 09:53:00,
2013-03-17 05:58:00,24.1,11.8,29.91,WNW,297,0.0,0.0,59,0.00,CLR,FEW,0.00,0.0,WeatherDisplay:10.37,2013-03-17 09:58:00,
2013-03-17 06:03:00,24.1,12.2,29.91,WNW,292,0.0,0.0,60,0.00,CLR,FEW,0.00,0.0,WeatherDisplay:10.37,2013-03-17 10:03:00,
2013-03-17 06:08:00,23.9,12.0,29.91,WNW,292,0.0,0.0,60,0.00,CLR,FEW,0.00,0.0,WeatherDisplay:10.37,2013-03-17 10:08:00,
2013-03-17 06:13:00,23.9,12.0,29.91,WNW,292,0.0,0.0,60,0.00,CLR,FEW,0.00,0.0,WeatherDisplay:10.37,2013-03-17 10:13:00,
2013-03-17 06:18:00,23.9,12.0,29.91,WNW,291,0.0,0.0,60,0.00,CLR,FEW,0.00,0.0,WeatherDisplay:10.37,2013-03-17 10:18:00,
2013-03-17 06:23:00,23.9,12.0,29.91,WNW,292,0.0,0.0,60,0.00,CLR,FEW,0.00,0.0,WeatherDisplay:10.37,2013-03-17 10:23:00,
2013-03-17 06:28:00,23.9,12.0,29.91,WNW,292,0.0,0.0,60,0.00,CLR,FEW,0.00,0.0,WeatherDisplay:10.37,2013-03-17 10:28:00,
2013-03-17 06:33:00,23.9,12.0,29.91,WNW,292,0.0,0.0,60,0.00,CLR,FEW,0.00,0.0,WeatherDisplay:10.37,2013-03-17 10:33:00,
2013-03-17 06:39:00,24.1,12.2,29.91,WNW,291,0.0,0.0,60,0.00,CLR,FEW,0.00,0.0,WeatherDisplay:10.37,2013-03-17 10:39:00,
2013-03-17 06:44:00,24.1,12.2,29.91,WNW,287,0.0,0.0,60,0.00,CLR,FEW,0.00,0.0,WeatherDisplay:10.37,2013-03-17 10:44:00,
2013-03-17 06:49:00,23.9,12.0,29.91,WNW,287,0.0,0.0,60,0.00,CLR,FEW,0.00,0.0,WeatherDisplay:10.37,2013-03-17 10:49:00,
2013-03-17 06:54:00,23.9,12.0,29.94,WNW,284,0.0,0.0,60,0.00,CLR,FEW,0.00,0.0,WeatherDisplay:10.37,2013-03-17 10:54:00,
2013-03-17 06:59:00,23.9,12.0,29.94,WNW,284,0.0,0.0,60,0.00,CLR,FEW,0.00,0.0,WeatherDisplay:10.37,2013-03-17 10:59:00,
2013-03-17 07:04:00,23.9,12.0,29.94,WNW,295,0.0,0.0,60,0.00,SCT,FEW,0.00,0.0,WeatherDisplay:10.37,2013-03-17 11:04:00,
2013-03-17 07:09:00,23.9,12.0,29.94,WNW,298,0.0,0.0,60,0.00,SCT,FEW,0.00,0.0,WeatherDisplay:10.37,2013-03-17 11:09:00,
2013-03-17 07:14:00,23.9,12.0,29.94,NW,308,0.0,0.0,60,0.00,SCT,FEW,0.00,0.0,WeatherDisplay:10.37,2013-03-17 11:14:00,
2013-03-17 07:19:00,23.9,12.4,29.94,NW,317,0.0,0.0,61,0.00,SCT,FEW,0.00,0.0,WeatherDisplay:10.37,2013-03-17 11:19:00,
2013-03-17 07:24:00,23.9,12.4,29.94,NW,320,0.0,0.0,61,0.00,SCT,FEW,0.00,0.0,WeatherDisplay:10.37,2013-03-17 11:24:00,
2013-03-17 07:29:00,23.9,12.4,29.94,NNW,329,0.0,0.0,61,0.00,SCT,FEW,0.00,0.0,WeatherDisplay:10.37,2013-03-17 11:29:00,
2013-03-17 07:34:00,23.9,12.4,29.94,NNW,327,0.0,0.0,61,0.00,SCT,FEW,0.00,0.0,WeatherDisplay:10.37,2013-03-17 11:34:00,
2013-03-17 07:39:00,24.1,12.9,29.97,NNW,332,0.0,0.0,62,0.00,SCT,FEW,0.00,0.0,WeatherDisplay:10.37,2013-03-17 11:39:00,
2013-03-17 07:44:00,24.3,13.1,29.97,North,350,0.0,0.0,62,0.00,SCT,FEW,0.00,0.0,WeatherDisplay:10.37,2013-03-17 11:44:00,
2013-03-17 07:49:00,24.6,13.4,29.97,NW,325,0.0,0.0,62,0.00,SCT,FEW,0.00,0.0,WeatherDisplay:10.37,2013-03-17 11:49:00,
2013-03-17 07:54:00,25.0,13.8,29.97,NW,310,3.5,3.5,62,0.00,SCT,FEW,0.00,0.0,WeatherDisplay:10.37,2013-03-17 11:54:00,
2013-03-17 07:59:00,25.3,14.1,29.97,NW,310,0.0,0.0,62,0.00,SCT,FEW,0.00,0.0,WeatherDisplay:10.37,2013-03-17 11:59:00,
2013-03-17 08:04:00,25.5,14.3,29.97,NW,304,5.8,5.8,62,0.00,FEW,,0.00,0.4,WeatherDisplay:10.37,2013-03-17 12:04:00,
2013-03-17 08:09:00,25.9,14.6,29.97,NW,317,5.8,5.8,62,0.00,FEW,,0.00,1.1,WeatherDisplay:10.37,2013-03-17 12:09:00,
2013-03-17 08:14:00,26.2,15.0,29.97,NW,306,5.8,5.8,62,0.00,FEW,,0.00,1.8,WeatherDisplay:10.37,2013-03-17 12:14:00,
2013-03-17 08:19:00,26.6,15.3,29.97,NNW,334,8.1,8.1,62,0.00,FEW,,0.00,2.4,WeatherDisplay:10.37,2013-03-17 12:19:00,
2013-03-17 08:24:00,27.0,15.3,30.00,NW,320,5.8,5.8,61,0.00,FEW,,0.00,3.0,WeatherDisplay:10.37,2013-03-17 12:24:00,
2013-03-17 08:29:00,27.1,15.5,30.00,WNW,296,3.5,5.4,61,0.00,FEW,,0.00,3.5,WeatherDisplay:10.37,2013-03-17 12:29:00,
2013-03-17 08:34:00,27.7,15.6,30.00,NW,309,5.8,5.8,60,0.00,FEW,,0.00,3.7,WeatherDisplay:10.37,2013-03-17 12:34:00,
2013-03-17 08:39:00,27.9,15.8,30.00,North,11,3.5,3.6,60,0.00,FEW,,0.00,4.2,WeatherDisplay:10.37,2013-03-17 12:39:00,
2013-03-17 08:44:00,28.2,16.1,30.00,NW,316,5.8,5.8,60,0.00,FEW,,0.00,4.4,WeatherDisplay:10.37,2013-03-17 12:44:00,
2013-03-17 08:49:00,28.6,16.1,30.00,North,359,9.2,9.2,59,0.00,FEW,,0.00,4.5,WeatherDisplay:10.37,2013-03-17 12:49:00,
2013-03-17 08:54:00,28.8,16.2,30.00,NNW,343,10.4,10.4,59,0.00,FEW,,0.00,4.8,WeatherDisplay:10.37,2013-03-17 12:54:00,
2013-03-17 08:59:00,28.9,16.4,30.00,WNW,301,8.1,8.1,59,0.00,FEW,,0.00,5.0,WeatherDisplay:10.37,2013-03-17 12:59:00,
2013-03-17 09:04:00,28.9,16.4,30.00,West,272,10.4,10.4,59,0.00,FEW,,0.00,5.5,WeatherDisplay:10.37,2013-03-17 13:04:00,
2013-03-17 09:09:00,29.3,16.7,30.00,NW,325,8.1,8.1,59,0.00,FEW,,0.00,5.3,WeatherDisplay:10.37,2013-03-17 13:09:00,
2013-03-17 09:14:00,29.5,16.9,30.00,NNW,348,10.4,10.4,59,0.00,FEW,,0.00,5.4,WeatherDisplay:10.37,2013-03-17 13:14:00,
2013-03-17 09:19:00,29.7,17.1,30.00,NW,320,10.4,10.4,59,0.00,BKN,FEW,0.00,5.4,WeatherDisplay:10.37,2013-03-17 13:19:00,
2013-03-17 09:24:00,29.8,16.8,30.00,NW,324,9.2,9.2,58,0.00,BKN,FEW,0.00,5.4,WeatherDisplay:10.37,2013-03-17 13:24:00,
2013-03-17 09:29:00,30.0,17.0,30.00,North,357,10.4,10.4,58,0.00,BKN,FEW,0.00,5.3,WeatherDisplay:10.37,2013-03-17 13:29:00,
2013-03-17 09:34:00,30.2,17.2,30.00,WNW,298,8.1,8.1,58,0.00,BKN,FEW,0.00,5.1,WeatherDisplay:10.37,2013-03-17 13:34:00,
2013-03-17 09:39:00,30.6,17.5,30.03,NW,313,8.1,8.1,58,0.00,BKN,FEW,0.00,4.3,WeatherDisplay:10.37,2013-03-17 13:39:00,
2013-03-17 09:44:00,30.7,17.7,30.03,SW,224,5.8,5.8,58,0.00,BKN,FEW,0.00,4.6,WeatherDisplay:10.37,2013-03-17 13:44:00,
2013-03-17 09:49:00,31.1,18.0,30.03,NW,307,8.1,8.1,58,0.00,BKN,FEW,0.00,3.0,WeatherDisplay:10.37,2013-03-17 13:49:00,
2013-03-17 09:54:00,31.1,17.6,30.00,NNW,331,10.4,10.4,57,0.00,BKN,FEW,0.00,3.2,WeatherDisplay:10.37,2013-03-17 13:54:00,
2013-03-17 09:59:00,31.5,18.0,30.00,NW,318,11.5,11.5,57,0.00,BKN,FEW,0.00,2.0,WeatherDisplay:10.37,2013-03-17 13:59:00,
2013-03-17 10:04:00,32.2,18.6,30.00,NNW,331,15.0,15.0,57,0.00,BKN,FEW,0.00,0.0,WeatherDisplay:10.37,2013-03-17 14:04:00,
2013-03-17 10:09:00,32.7,19.1,30.00,WNW,294,5.8,6.3,57,0.00,BKN,FEW,0.00,0.0,WeatherDisplay:10.37,2013-03-17 14:09:00,
2013-03-17 10:14:00,32.9,17.2,30.00,NW,311,9.2,9.2,52,0.00,BKN,FEW,0.00,0.0,WeatherDisplay:10.37,2013-03-17 14:14:00,
2013-03-17 10:19:00,32.9,17.2,30.00,NNE,12,10.4,10.4,52,0.00,BKN,FEW,0.00,0.0,WeatherDisplay:10.37,2013-03-17 14:19:00,
2013-03-17 10:24:00,32.7,16.1,30.00,NNW,328,9.2,9.2,50,0.00,BKN,FEW,0.00,0.0,WeatherDisplay:10.37,2013-03-17 14:24:00,
2013-03-17 10:29:00,32.7,16.1,30.00,NW,321,10.4,10.4,50,0.00,BKN,FEW,0.00,0.0,WeatherDisplay:10.37,2013-03-17 14:29:00,
2013-03-17 10:34:00,33.3,16.6,30.00,NW,319,8.1,8.1,50,0.00,BKN,FEW,0.00,0.0,WeatherDisplay:10.37,2013-03-17 14:34:00,
2013-03-17 10:39:00,33.8,16.6,30.00,WNW,294,8.1,8.1,49,0.00,BKN,FEW,0.00,0.0,WeatherDisplay:10.37,2013-03-17 14:39:00,
2013-03-17 10:44:00,34.5,17.3,30.00,NNW,334,11.5,11.5,49,0.00,BKN,FEW,0.00,0.0,WeatherDisplay:10.37,2013-03-17 14:44:00,
2013-03-17 10:49:00,34.9,17.6,30.00,NW,322,9.2,9.2,49,0.00,BKN,FEW,0.00,0.0,WeatherDisplay:10.37,2013-03-17 14:49:00,
2013-03-17 10:54:00,35.2,18.0,30.00,West,266,5.8,5.8,49,0.00,BKN,FEW,0.00,0.0,WeatherDisplay:10.37,2013-03-17 14:54:00,
2013-03-17 10:59:00,35.8,16.5,30.00,NW,319,3.5,3.6,45,0.00,BKN,FEW,0.00,0.0,WeatherDisplay:10.37,2013-03-17 14:59:00,
2013-03-17 11:04:00,36.1,16.8,30.00,WNW,288,17.3,17.3,45,0.00,BKN,FEW,0.00,0.0,WeatherDisplay:10.37,2013-03-17 15:04:00,
2013-03-17 11:09:00,36.3,17.0,30.00,WNW,293,10.4,10.4,45,0.00,BKN,FEW,0.00,0.0,WeatherDisplay:10.37,2013-03-17 15:09:00,
2013-03-17 11:14:00,36.5,17.1,30.00,NW,313,8.1,8.1,45,0.00,BKN,FEW,0.00,0.0,WeatherDisplay:10.37,2013-03-17 15:14:00,
2013-03-17 11:19:00,37.2,17.8,30.00,WNW,283,8.1,8.1,45,0.00,BKN,FEW,0.00,0.0,WeatherDisplay:10.37,2013-03-17 15:19:00,
2013-03-17 11:24:00,37.4,18.0,30.00,WSW,255,9.2,9.2,45,0.00,BKN,FEW,0.00,0.0,WeatherDisplay:10.37,2013-03-17 15:24:00,
2013-03-17 11:29:00,37.6,18.1,30.00,NW,322,11.5,11.5,45,0.00,BKN,FEW,0.00,0.0,WeatherDisplay:10.37,2013-03-17 15:29:00,
2013-03-17 11:34:00,37.4,18.0,30.00,NW,319,10.4,10.4,45,0.00,BKN,FEW,0.00,0.0,WeatherDisplay:10.37,2013-03-17 15:34:00,
2013-03-17 11:39:00,37.2,16.7,30.00,WNW,289,8.1,8.1,43,0.00,BKN,FEW,0.00,0.0,WeatherDisplay:10.37,2013-03-17 15:39:00,
2013-03-17 11:44:00,37.6,16.5,30.00,NNW,346,11.5,11.5,42,0.00,BKN,FEW,0.00,0.0,WeatherDisplay:10.37,2013-03-17 15:44:00,
2013-03-17 11:49:00,37.8,16.7,30.00,NNW,347,9.2,9.2,42,0.00,BKN,FEW,0.00,0.0,WeatherDisplay:10.37,2013-03-17 15:49:00,
2013-03-17 11:54:00,37.9,16.9,30.00,North,3,10.4,10.4,42,0.00,BKN,FEW,0.00,0.0,WeatherDisplay:10.37,2013-03-17 15:54:00,
2013-03-17 11:59:00,37.9,16.9,30.00,WNW,303,10.9,10.9,42,0.00,BKN,FEW,0.00,0.0,WeatherDisplay:10.37,2013-03-17 15:59:00,
2013-03-17 12:04:00,38.1,17.0,30.00,North,350,19.6,19.6,42,0.00,BKN,FEW,0.00,0.0,WeatherDisplay:10.37,2013-03-17 16:04:00,
2013-03-17 12:09:00,38.7,17.5,30.00,North,350,12.7,12.7,42,0.00,BKN,FEW,0.00,0.0,WeatherDisplay:10.37,2013-03-17 16:09:00,
2013-03-17 12:14:00,38.7,17.5,30.00,North,4,8.1,8.1,42,0.00,BKN,FEW,0.00,0.0,WeatherDisplay:10.37,2013-03-17 16:14:00,
2013-03-17 12:19:00,38.5,17.3,30.00,North,349,15.0,15.0,42,0.00,BKN,FEW,0.00,0.0,WeatherDisplay:10.37,2013-03-17 16:19:00,
2013-03-17 12:24:00,38.5,17.3,30.00,NNW,328,17.0,17.0,42,0.00,BKN,FEW,0.00,0.0,WeatherDisplay:10.37,2013-03-17 16:24:00,
2013-03-17 12:29:00,38.3,17.2,30.00,NNW,331,15.0,15.0,42,0.00,BKN,FEW,0.00,0.0,WeatherDisplay:10.37,2013-03-17 16:29:00,
2013-03-17 12:34:00,38.3,17.2,30.00,NNW,336,8.1,9.6,42,0.00,BKN,FEW,0.00,0.0,WeatherDisplay:10.37,2013-03-17 16:34:00,
2013-03-17 12:39:00,38.1,17.0,30.00,NNW,328,10.4,10.4,42,0.00,BKN,FEW,0.00,0.0,WeatherDisplay:10.37,2013-03-17 16:39:00,
2013-03-17 12:44:00,38.5,17.3,30.00,West,264,5.8,6.3,42,0.00,BKN,FEW,0.00,0.0,WeatherDisplay:10.37,2013-03-17 16:44:00,
2013-03-17 12:49:00,39.2,18.0,30.00,NW,309,16.1,16.1,42,0.00,BKN,FEW,0.00,0.0,WeatherDisplay:10.37,2013-03-17 16:49:00,
2013-03-17 12:54:00,39.4,18.2,30.00,WSW,254,5.8,5.8,42,0.00,BKN,FEW,0.00,0.0,WeatherDisplay:10.37,2013-03-17 16:54:00,
2013-03-17 12:59:00,39.7,18.5,30.00,NW,323,5.8,5.8,42,0.00,BKN,FEW,0.00,0.0,WeatherDisplay:10.37,2013-03-17 16:59:00,
2013-03-17 13:04:00,39.9,18.7,30.00,North,353,5.8,6.3,42,0.00,BKN,FEW,0.00,0.0,WeatherDisplay:10.37,2013-03-17 17:04:00,
2013-03-17 13:09:00,39.9,18.7,30.00,WNW,297,9.2,9.2,42,0.00,BKN,FEW,0.00,0.0,WeatherDisplay:10.37,2013-03-17 17:09:00,
2013-03-17 13:14:00,40.1,18.8,30.00,WNW,284,9.2,9.2,42,0.00,BKN,FEW,0.00,0.0,WeatherDisplay:10.37,2013-03-17 17:14:00,
2013-03-17 13:19:00,40.3,19.0,30.00,NW,326,12.7,12.7,42,0.00,BKN,FEW,0.00,0.0,WeatherDisplay:10.37,2013-03-17 17:19:00,
2013-03-17 13:24:00,40.1,18.8,30.00,NW,322,8.1,8.1,42,0.00,BKN,FEW,0.00,0.0,WeatherDisplay:10.37,2013-03-17 17:24:00,
2013-03-17 13:29:00,40.3,19.0,30.00,North,349,8.1,8.1,42,0.00,BKN,FEW,0.00,0.0,WeatherDisplay:10.37,2013-03-17 17:29:00,
2013-03-17 13:34:00,40.5,19.1,30.00,NNW,335,12.7,12.7,42,0.00,BKN,FEW,0.00,0.0,WeatherDisplay:10.37,2013-03-17 17:34:00,
2013-03-17 13:39:00,40.6,19.3,30.00,NW,304,9.2,9.2,42,0.00,BKN,FEW,0.00,0.0,WeatherDisplay:10.37,2013-03-17 17:39:00,
2013-03-17 13:44:00,40.5,19.1,30.00,West,276,8.1,8.1,42,0.00,BKN,FEW,0.00,0.0,WeatherDisplay:10.37,2013-03-17 17:44:00,
2013-03-17 13:49:00,40.5,19.1,30.00,NNW,344,9.2,9.2,42,0.00,BKN,FEW,0.00,0.0,WeatherDisplay:10.37,2013-03-17 17:49:00,
2013-03-17 13:54:00,40.1,18.8,30.00,West,272,8.1,8.1,42,0.00,BKN,FEW,0.00,0.0,WeatherDisplay:10.37,2013-03-17 17:54:00,
2013-03-17 13:59:00,39.9,18.7,30.00,NNW,347,8.1,8.1,42,0.00,BKN,FEW,0.00,0.0,WeatherDisplay:10.37,2013-03-17 17:59:00,
2013-03-17 14:04:00,39.6,18.3,30.00,NW,309,10.4,10.4,42,0.00,BKN,FEW,0.00,0.0,WeatherDisplay:10.37,2013-03-17 18:04:00,
2013-03-17 14:09:00,39.2,18.0,30.00,NNW,332,9.2,9.2,42,0.00,BKN,FEW,0.00,0.0,WeatherDisplay:10.37,2013-03-17 18:09:00,
2013-03-17 14:14:00,39.2,18.0,30.00,NNW,329,12.7,12.7,42,0.00,BKN,FEW,0.00,0.0,WeatherDisplay:10.37,2013-03-17 18:14:00,
2013-03-17 14:19:00,39.0,17.8,30.00,North,351,8.1,8.1,42,0.00,BKN,FEW,0.00,0.0,WeatherDisplay:10.37,2013-03-17 18:19:00,
2013-03-17 14:24:00,39.0,17.8,30.00,NNW,330,6.9,6.9,42,0.00,BKN,FEW,0.00,0.0,WeatherDisplay:10.37,2013-03-17 18:24:00,
2013-03-17 14:29:00,39.4,18.2,30.00,North,360,9.2,9.2,42,0.00,BKN,FEW,0.00,0.0,WeatherDisplay:10.37,2013-03-17 18:29:00,
2013-03-17 14:34:00,39.4,18.2,30.00,North,10,12.7,12.7,42,0.00,BKN,FEW,0.00,0.0,WeatherDisplay:10.37,2013-03-17 18:34:00,
2013-03-17 14:39:00,39.4,18.2,30.00,West,278,8.1,8.1,42,0.00,BKN,FEW,0.00,0.0,WeatherDisplay:10.37,2013-03-17 18:39:00,
2013-03-17 14:44:00,39.6,18.3,30.00,NW,316,8.1,8.1,42,0.00,BKN,FEW,0.00,0.0,WeatherDisplay:10.37,2013-03-17 18:44:00,
2013-03-17 14:49:00,39.4,18.2,30.00,NNW,340,12.7,12.7,42,0.00,BKN,FEW,0.00,0.0,WeatherDisplay:10.37,2013-03-17 18:49:00,
2013-03-17 14:54:00,39.2,18.0,30.00,WNW,297,9.2,9.2,42,0.00,BKN,FEW,0.00,0.0,WeatherDisplay:10.37,2013-03-17 18:54:00,
2013-03-17 14:59:00,39.0,17.8,30.00,WNW,285,9.2,9.2,42,0.00,BKN,FEW,0.00,0.0,WeatherDisplay:10.37,2013-03-17 18:59:00,
2013-03-17 15:04:00,38.8,17.7,30.00,North,4,12.7,12.7,42,0.00,BKN,FEW,0.00,0.0,WeatherDisplay:10.37,2013-03-17 19:04:00,
2013-03-17 15:10:00,39.2,18.0,30.00,WNW,293,8.1,8.1,42,0.00,BKN,FEW,0.00,0.0,WeatherDisplay:10.37,2013-03-17 19:10:00,
2013-03-17 15:15:00,39.6,18.3,30.00,NW,304,5.8,5.8,42,0.00,BKN,FEW,0.00,0.0,WeatherDisplay:10.37,2013-03-17 19:15:00,
2013-03-17 15:20:00,39.9,18.7,30.00,North,11,9.2,9.2,42,0.00,OVC,FEW,0.00,0.0,WeatherDisplay:10.37,2013-03-17 19:20:00,
2013-03-17 15:25:00,39.9,18.7,30.03,North,349,12.7,12.7,42,0.00,OVC,FEW,0.00,0.0,WeatherDisplay:10.37,2013-03-17 19:25:00,
2013-03-17 15:30:00,39.7,18.5,30.03,NNW,342,11.5,11.5,42,0.00,OVC,FEW,0.00,0.0,WeatherDisplay:10.37,2013-03-17 19:30:00,
2013-03-17 15:35:00,39.6,18.3,30.03,WNW,296,8.1,8.1,42,0.00,OVC,FEW,0.00,0.0,WeatherDisplay:10.37,2013-03-17 19:35:00,
2013-03-17 15:40:00,39.6,18.3,30.03,WNW,293,8.1,8.1,42,0.00,OVC,FEW,0.00,0.0,WeatherDisplay:10.37,2013-03-17 19:40:00,
2013-03-17 15:45:00,39.9,18.7,30.03,NNW,333,9.2,9.2,42,0.00,OVC,FEW,0.00,0.0,WeatherDisplay:10.37,2013-03-17 19:45:00,
2013-03-17 15:50:00,39.9,18.7,30.03,North,353,5.8,5.8,42,0.00,OVC,FEW,0.00,0.0,WeatherDisplay:10.37,2013-03-17 19:50:00,
2013-03-17 15:55:00,39.9,18.7,30.03,NW,325,11.5,11.5,42,0.00,OVC,FEW,0.00,0.0,WeatherDisplay:10.37,2013-03-17 19:55:00,
2013-03-17 16:00:00,39.9,18.7,30.03,NNW,333,9.2,9.2,42,0.00,OVC,FEW,0.00,0.0,WeatherDisplay:10.37,2013-03-17 20:00:00,
2013-03-17 16:05:00,39.7,18.5,30.03,NNW,337,8.1,8.1,42,0.00,OVC,FEW,0.00,0.0,WeatherDisplay:10.37,2013-03-17 20:05:00,
2013-03-17 16:10:00,39.7,18.5,30.03,NNW,343,10.4,10.4,42,0.00,OVC,FEW,0.00,0.0,WeatherDisplay:10.37,2013-03-17 20:10:00,
2013-03-17 16:15:00,39.7,18.5,30.03,NW,307,5.8,5.8,42,0.00,OVC,FEW,0.00,0.0,WeatherDisplay:10.37,2013-03-17 20:15:00,
2013-03-17 16:20:00,39.4,18.2,30.03,West,260,5.8,5.8,42,0.00,BKN,FEW,0.00,0.0,WeatherDisplay:10.37,2013-03-17 20:20:00,
2013-03-17 16:25:00,39.2,18.0,30.03,NNW,345,9.2,9.2,42,0.00,BKN,FEW,0.00,0.0,WeatherDisplay:10.37,2013-03-17 20:25:00,
2013-03-17 16:30:00,39.0,17.8,30.03,North,352,8.1,8.1,42,0.00,BKN,FEW,0.00,0.0,WeatherDisplay:10.37,2013-03-17 20:30:00,
2013-03-17 16:35:00,38.8,17.7,30.03,NW,319,12.7,12.7,42,0.00,BKN,FEW,0.00,0.0,WeatherDisplay:10.37,2013-03-17 20:35:00,
2013-03-17 16:40:00,38.8,17.7,30.03,NW,323,15.0,15.0,42,0.00,BKN,FEW,0.00,0.0,WeatherDisplay:10.37,2013-03-17 20:40:00,
2013-03-17 16:45:00,38.7,17.5,30.03,NNW,340,11.5,11.5,42,0.00,BKN,FEW,0.00,0.0,WeatherDisplay:10.37,2013-03-17 20:45:00,
2013-03-17 16:50:00,38.5,17.3,30.03,NW,322,8.1,8.3,42,0.00,BKN,FEW,0.00,0.0,WeatherDisplay:10.37,2013-03-17 20:50:00,
2013-03-17 16:55:00,38.5,17.3,30.06,NW,316,5.8,5.8,42,0.00,BKN,FEW,0.00,0.0,WeatherDisplay:10.37,2013-03-17 20:55:00,
2013-03-17 17:00:00,38.7,17.5,30.06,NW,309,5.8,5.8,42,0.00,BKN,FEW,0.00,0.0,WeatherDisplay:10.37,2013-03-17 21:00:00,
2013-03-17 17:05:00,38.7,17.5,30.06,NNW,347,11.5,11.5,42,0.00,BKN,FEW,0.00,0.0,WeatherDisplay:10.37,2013-03-17 21:05:00,
2013-03-17 17:10:00,38.5,17.3,30.06,North,360,6.9,6.9,42,0.00,BKN,FEW,0.00,0.0,WeatherDisplay:10.37,2013-03-17 21:10:00,
2013-03-17 17:15:00,38.3,17.2,30.06,NW,321,4.6,4.6,42,0.00,BKN,FEW,0.00,0.0,WeatherDisplay:10.37,2013-03-17 21:15:00,
2013-03-17 17:20:00,38.1,17.0,30.06,NW,315,8.1,8.1,42,0.00,CLR,FEW,0.00,0.0,WeatherDisplay:10.37,2013-03-17 21:20:00,
2013-03-17 17:25:00,38.1,17.0,30.06,WNW,300,5.8,8.7,42,0.00,CLR,FEW,0.00,0.0,WeatherDisplay:10.37,2013-03-17 21:25:00,
2013-03-17 17:30:00,37.8,16.7,30.06,North,351,9.2,9.2,42,0.00,CLR,FEW,0.00,0.0,WeatherDisplay:10.37,2013-03-17 21:30:00,
2013-03-17 17:35:00,37.4,16.4,30.06,NW,309,8.1,8.1,42,0.00,CLR,FEW,0.00,0.0,WeatherDisplay:10.37,2013-03-17 21:35:00,
2013-03-17 17:40:00,37.4,16.4,30.06,NW,319,8.1,8.1,42,0.00,CLR,FEW,0.00,0.0,WeatherDisplay:10.37,2013-03-17 21:40:00,
2013-03-17 17:45:00,37.4,16.4,30.06,NNW,345,3.5,3.5,42,0.00,CLR,FEW,0.00,0.0,WeatherDisplay:10.37,2013-03-17 21:45:00,
2013-03-17 17:50:00,37.0,16.6,30.06,NW,313,8.1,8.1,43,0.00,CLR,FEW,0.00,0.0,WeatherDisplay:10.37,2013-03-17 21:50:00,
2013-03-17 17:55:00,36.7,16.3,30.08,NW,307,8.1,8.1,43,0.00,CLR,FEW,0.00,0.0,WeatherDisplay:10.37,2013-03-17 21:55:00,
2013-03-17 18:00:00,36.5,16.1,30.08,North,359,5.8,5.8,43,0.00,CLR,FEW,0.00,0.0,WeatherDisplay:10.37,2013-03-17 22:00:00,
2013-03-17 18:05:00,36.3,15.9,30.08,NNW,333,3.5,3.6,43,0.00,CLR,FEW,0.00,0.0,WeatherDisplay:10.37,2013-03-17 22:05:00,
2013-03-17 18:10:00,36.1,15.8,30.08,West,281,5.8,5.8,43,0.00,CLR,FEW,0.00,0.0,WeatherDisplay:10.37,2013-03-17 22:10:00,
2013-03-17 18:15:00,36.0,15.6,30.08,NNW,346,11.5,11.5,43,0.00,CLR,FEW,0.00,0.0,WeatherDisplay:10.37,2013-03-17 22:15:00,
2013-03-17 18:20:00,35.6,15.3,30.08,NNW,338,5.8,5.8,43,0.00,BKN,FEW,0.00,0.0,WeatherDisplay:10.37,2013-03-17 22:20:00,
2013-03-17 18:25:00,35.4,15.1,30.08,WNW,283,8.1,8.1,43,0.00,BKN,FEW,0.00,0.0,WeatherDisplay:10.37,2013-03-17 22:25:00,
2013-03-17 18:30:00,35.1,14.8,30.08,NW,309,9.2,9.2,43,0.00,BKN,FEW,0.00,0.0,WeatherDisplay:10.37,2013-03-17 22:30:00,
2013-03-17 18:35:00,34.9,14.6,30.08,NW,321,8.1,8.1,43,0.00,BKN,FEW,0.00,0.0,WeatherDisplay:10.37,2013-03-17 22:35:00,
2013-03-17 18:40:00,34.9,14.6,30.08,NW,306,8.1,8.1,43,0.00,BKN,FEW,0.00,0.0,WeatherDisplay:10.37,2013-03-17 22:40:00,
2013-03-17 18:45:00,34.5,14.3,30.08,NW,319,9.2,9.2,43,0.00,BKN,FEW,0.00,0.0,WeatherDisplay:10.37,2013-03-17 22:45:00,
2013-03-17 18:50:00,34.3,14.1,30.08,NNW,334,5.8,5.8,43,0.00,BKN,FEW,0.00,0.0,WeatherDisplay:10.37,2013-03-17 22:50:00,
2013-03-17 18:55:00,34.2,14.0,30.11,NNW,327,4.6,4.6,43,0.00,BKN,FEW,0.00,0.0,WeatherDisplay:10.37,2013-03-17 22:55:00,
2013-03-17 19:00:00,34.0,13.8,30.11,NNW,328,8.1,8.1,43,0.00,BKN,FEW,0.00,0.0,WeatherDisplay:10.37,2013-03-17 23:00:00,
2013-03-17 19:05:00,33.8,13.6,30.11,NNW,344,3.5,3.6,43,0.00,BKN,FEW,0.00,0.0,WeatherDisplay:10.37,2013-03-17 23:05:00,
2013-03-17 19:10:00,33.6,14.0,30.11,NNW,343,3.5,3.5,44,0.00,BKN,FEW,0.00,0.0,WeatherDisplay:10.37,2013-03-17 23:10:00,
2013-03-17 19:15:00,33.4,13.8,30.11,NNW,333,4.6,4.6,44,0.00,BKN,FEW,0.00,0.0,WeatherDisplay:10.37,2013-03-17 23:15:00,
2013-03-17 19:20:00,33.3,13.7,30.11,NNW,344,5.8,5.8,44,0.00,BKN,FEW,0.00,0.0,WeatherDisplay:10.37,2013-03-17 23:20:00,
2013-03-17 19:25:00,33.3,13.7,30.14,NNW,342,5.8,5.8,44,0.00,BKN,FEW,0.00,0.0,WeatherDisplay:10.37,2013-03-17 23:25:00,
2013-03-17 19:30:00,33.1,13.5,30.14,NNW,327,2.3,0.0,44,0.00,BKN,FEW,0.00,0.0,WeatherDisplay:10.37,2013-03-17 23:30:00,
2013-03-17 19:35:00,32.7,13.2,30.14,NW,322,0.0,0.0,44,0.00,BKN,FEW,0.00,0.0,WeatherDisplay:10.37,2013-03-17 23:35:00,
2013-03-17 19:40:00,32.5,13.0,30.14,NNW,327,0.0,0.0,44,0.00,BKN,FEW,0.00,0.0,WeatherDisplay:10.37,2013-03-17 23:40:00,
2013-03-17 19:45:00,32.4,12.8,30.14,NNW,338,3.5,3.5,44,0.00,BKN,FEW,0.00,0.0,WeatherDisplay:10.37,2013-03-17 23:45:00,
2013-03-17 19:50:00,32.2,12.7,30.14,NW,326,3.5,3.5,44,0.00,BKN,FEW,0.00,0.0,WeatherDisplay:10.37,2013-03-17 23:50:00,
2013-03-17 19:55:00,32.2,12.7,30.14,NNW,338,0.0,0.0,44,0.00,BKN,FEW,0.00,0.0,WeatherDisplay:10.37,2013-03-17 23:55:00,
2013-03-17 20:00:00,32.0,12.5,30.14,NNW,339,0.0,0.0,44,0.00,BKN,FEW,0.00,0.0,WeatherDisplay:10.37,2013-03-18 00:00:00,
2013-03-17 20:05:00,31.6,12.2,30.14,North,350,0.0,0.0,44,0.00,BKN,FEW,0.00,0.0,WeatherDisplay:10.37,2013-03-18 00:05:00,
2013-03-17 20:10:00,31.5,12.0,30.14,NNW,330,0.0,0.0,44,0.00,BKN,FEW,0.00,0.0,WeatherDisplay:10.37,2013-03-18 00:10:00,
2013-03-17 20:15:00,31.1,9.6,30.14,NNW,329,0.0,0.0,40,0.00,BKN,FEW,0.00,0.0,WeatherDisplay:10.37,2013-03-18 00:15:00,
2013-03-17 20:20:00,30.9,11.5,30.14,NNW,334,3.5,3.5,44,0.00,BKN,FEW,0.00,0.0,WeatherDisplay:10.37,2013-03-18 00:20:00,
2013-03-17 20:25:00,30.7,9.2,30.17,NNW,329,3.5,3.5,40,0.00,BKN,FEW,0.00,0.0,WeatherDisplay:10.37,2013-03-18 00:25:00,
2013-03-17 20:30:00,30.4,8.9,30.17,NNW,333,0.0,0.0,40,0.00,BKN,FEW,0.00,0.0,WeatherDisplay:10.37,2013-03-18 00:30:00,
2013-03-17 20:35:00,30.2,8.7,30.17,NNW,334,0.0,0.0,40,0.00,BKN,FEW,0.00,0.0,WeatherDisplay:10.37,2013-03-18 00:35:00,
2013-03-17 20:40:00,30.2,8.7,30.17,NNW,334,0.0,0.0,40,0.00,BKN,FEW,0.00,0.0,WeatherDisplay:10.37,2013-03-18 00:40:00,
2013-03-17 20:45:00,29.8,8.4,30.17,NNW,334,0.0,0.0,40,0.00,BKN,FEW,0.00,0.0,WeatherDisplay:10.37,2013-03-18 00:45:00,
2013-03-17 20:50:00,29.7,8.3,30.17,NNW,334,0.0,0.0,40,0.00,BKN,FEW,0.00,0.0,WeatherDisplay:10.37,2013-03-18 00:50:00,
2013-03-17 20:55:00,29.3,7.9,30.17,NNW,334,0.0,0.0,40,0.00,BKN,FEW,0.00,0.0,WeatherDisplay:10.37,2013-03-18 00:55:00,
2013-03-17 21:00:00,28.9,7.6,30.17,NNW,334,0.0,0.0,40,0.00,BKN,FEW,0.00,0.0,WeatherDisplay:10.37,2013-03-18 01:00:00,
2013-03-17 21:05:00,28.8,7.4,30.17,NNW,334,0.0,0.0,40,0.00,FEW,,0.00,0.0,WeatherDisplay:10.37,2013-03-18 01:05:00,
2013-03-17 21:10:00,28.6,7.3,30.17,NNW,334,0.0,0.0,40,0.00,FEW,,0.00,0.0,WeatherDisplay:10.37,2013-03-18 01:10:00,
2013-03-17 21:15:00,28.4,8.2,30.17,NNW,334,0.0,0.0,42,0.00,FEW,,0.00,0.0,WeatherDisplay:10.37,2013-03-18 01:15:00,
2013-03-17 21:20:00,28.2,8.0,30.17,NNW,334,0.0,0.0,42,0.00,FEW,,0.00,0.0,WeatherDisplay:10.37,2013-03-18 01:20:00,
2013-03-17 21:25:00,27.9,7.7,30.20,NNW,334,0.0,0.0,42,0.00,FEW,,0.00,0.0,WeatherDisplay:10.37,2013-03-18 01:25:00,
2013-03-17 21:30:00,27.7,7.5,30.20,NNW,334,0.0,0.0,42,0.00,FEW,,0.00,0.0,WeatherDisplay:10.37,2013-03-18 01:30:00,
2013-03-17 21:35:00,27.5,7.4,30.20,NNW,334,0.0,0.0,42,0.00,FEW,,0.00,0.0,WeatherDisplay:10.37,2013-03-18 01:35:00,
2013-03-17 21:40:00,27.1,7.0,30.20,NNW,334,0.0,0.0,42,0.00,FEW,,0.00,0.0,WeatherDisplay:10.37,2013-03-18 01:40:00,
2013-03-17 21:45:00,26.8,6.7,30.20,NW,321,0.0,0.0,42,0.00,FEW,,0.00,0.0,WeatherDisplay:10.37,2013-03-18 01:45:00,
2013-03-17 21:50:00,26.6,6.6,30.20,NW,325,0.0,0.0,42,0.00,FEW,,0.00,0.0,WeatherDisplay:10.37,2013-03-18 01:50:00,
2013-03-17 21:55:00,26.6,6.6,30.20,NW,325,0.0,0.0,42,0.00,FEW,,0.00,0.0,WeatherDisplay:10.37,2013-03-18 01:55:00,
2013-03-17 22:00:00,26.4,6.4,30.20,NW,325,0.0,0.0,42,0.00,FEW,,0.00,0.0,WeatherDisplay:10.37,2013-03-18 02:00:00,
2013-03-17 22:05:00,26.4,6.4,30.20,NW,325,0.0,0.0,42,0.00,SCT,FEW,0.00,0.0,WeatherDisplay:10.37,2013-03-18 02:05:00,
2013-03-17 22:10:00,26.4,7.9,30.23,NW,320,0.0,0.0,45,0.00,SCT,FEW,0.00,0.0,WeatherDisplay:10.37,2013-03-18 02:10:00,
2013-03-17 22:15:00,26.2,7.8,30.23,NW,316,0.0,0.0,45,0.00,SCT,FEW,0.00,0.0,WeatherDisplay:10.37,2013-03-18 02:15:00,
2013-03-17 22:20:00,26.1,7.6,30.23,NW,316,0.0,0.0,45,0.00,SCT,FEW,0.00,0.0,WeatherDisplay:10.37,2013-03-18 02:20:00,
2013-03-17 22:25:00,25.9,7.4,30.23,NNW,334,0.0,0.0,45,0.00,SCT,FEW,0.00,0.0,WeatherDisplay:10.37,2013-03-18 02:25:00,
2013-03-17 22:30:00,25.7,7.3,30.23,NNW,339,0.0,0.0,45,0.00,SCT,FEW,0.00,0.0,WeatherDisplay:10.37,2013-03-18 02:30:00,
2013-03-17 22:35:00,25.7,7.3,30.23,NNW,339,0.0,0.0,45,0.00,SCT,FEW,0.00,0.0,WeatherDisplay:10.37,2013-03-18 02:35:00,
2013-03-17 22:40:00,25.5,7.1,30.23,NNW,339,0.0,0.0,45,0.00,SCT,FEW,0.00,0.0,WeatherDisplay:10.37,2013-03-18 02:40:00,
2013-03-17 22:45:00,25.5,7.1,30.23,NNW,343,0.0,0.0,45,0.00,SCT,FEW,0.00,0.0,WeatherDisplay:10.37,2013-03-18 02:45:00,
2013-03-17 22:50:00,25.3,6.9,30.23,NNW,344,0.0,0.0,45,0.00,SCT,FEW,0.00,0.0,WeatherDisplay:10.37,2013-03-18 02:50:00,
2013-03-17 22:55:00,25.3,6.9,30.26,NNW,343,0.0,0.0,45,0.00,SCT,FEW,0.00,0.0,WeatherDisplay:10.37,2013-03-18 02:55:00,
2013-03-17 23:00:00,25.2,6.8,30.26,NNW,343,0.0,0.0,45,0.00,SCT,FEW,0.00,0.0,WeatherDisplay:10.37,2013-03-18 03:00:00,
2013-03-17 23:05:00,25.0,6.6,30.26,NNW,343,0.0,0.0,45,0.00,SCT,FEW,0.00,0.0,WeatherDisplay:10.37,2013-03-18 03:05:00,
2013-03-17 23:10:00,24.8,6.4,30.26,NNW,343,0.0,0.0,45,0.00,SCT,FEW,0.00,0.0,WeatherDisplay:10.37,2013-03-18 03:10:00,
2013-03-17 23:15:00,24.6,6.3,30.26,NNW,343,0.0,0.0,45,0.00,SCT,FEW,0.00,0.0,WeatherDisplay:10.37,2013-03-18 03:15:00,
2013-03-17 23:20:00,24.8,6.4,30.26,NNW,343,0.0,0.0,45,0.00,SCT,FEW,0.00,0.0,WeatherDisplay:10.37,2013-03-18 03:20:00,
2013-03-17 23:25:00,24.8,6.4,30.26,NNW,344,0.0,0.0,45,0.00,SCT,FEW,0.00,0.0,WeatherDisplay:10.37,2013-03-18 03:25:00,
2013-03-17 23:30:00,24.6,6.3,30.26,NNW,344,0.0,0.0,45,0.00,SCT,FEW,0.00,0.0,WeatherDisplay:10.37,2013-03-18 03:30:00,
2013-03-17 23:35:00,24.6,6.3,30.26,NNW,343,0.0,0.0,45,0.00,SCT,FEW,0.00,0.0,WeatherDisplay:10.37,2013-03-18 03:35:00,
2013-03-17 23:40:00,24.4,6.1,30.26,NNW,343,0.0,0.0,45,0.00,SCT,FEW,0.00,0.0,WeatherDisplay:10.37,2013-03-18 03:40:00,
2013-03-17 23:45:00,24.4,6.1,30.26,NNW,343,0.0,0.0,45,0.00,SCT,FEW,0.00,0.0,WeatherDisplay:10.37,2013-03-18 03:45:00,
2013-03-17 23:50:00,24.4,6.1,30.26,NNW,343,0.0,0.0,45,0.00,SCT,FEW,0.00,0.0,WeatherDisplay:10.37,2013-03-18 03:50:00,
2013-03-17 23:55:00,24.3,5.9,30.26,North,354,0.0,0.0,45,0.00,SCT,FEW,0.00,0.0,WeatherDisplay:10.37,2013-03-18 03:55:00,